QPF
0.00 0.01 0.01 0.01 0.02 0.01 0.01 0.02 0.02 0.02 0.02 0.02 0.02 0.02 0.01 0.01 0.01 0.02 0.02 0.02 0.01 0.01 0.02 0.03 0.02 0.01 0.01 0.01 0.01 0.01 0.02 0.02 0.02 0.02 0.05 0.06 0.09 0.12 0.11 0.06 0.04 0.03 0.03
0.00 0.00 0.00 0.01 0.01 0.01 0.01 0.01 0.01 0.01 0.02 0.02 0.02 0.02 0.02 0.02 0.03 0.02 0.02 0.02 0.01 0.02 0.02 0.02 0.01 0.01 0.01 0.01 0.01 0.01 0.02 0.02 0.01 0.01 0.03 0.05 0.09 0.10 0.09 0.07 0.05 0.05 0.04
0.00 0.00 0.00 0.00 0.01 0.02 0.02 0.02 0.02 0.02 0.02 0.03 0.02 0.02 0.03 0.03 0.03 0.03 0.02 0.03 0.02 0.02 0.02 0.02 0.01 0.01 0.01 0.01 0.01 0.01 0.02 0.02 0.02 0.02 0.02 0.04 0.07 0.10 0.10 0.07 0.06 0.05 0.05
0.00 0.00 0.00 0.01 0.01 0.01 0.01 0.01 0.01 0.02 0.02 0.03 0.02 0.02 0.02 0.02 0.03 0.03 0.03 0.03 0.03 0.02 0.02 0.02 0.02 0.01 0.01 0.01 0.01 0.01 0.01 0.02 0.02 0.02 0.03 0.04 0.04 0.06 0.08 0.08 0.08 0.06 0.05
0.01 0.00 0.01 0.01 0.01 0.01 0.01 0.01 0.01 0.01 0.02 0.03 0.02 0.02 0.02 0.02 0.03 0.03 0.03 0.03 0.03 0.02 0.02 0.02 0.02 0.01 0.01 0.01 0.01 0.01 0.02 0.02 0.02 0.01 0.01 0.02 0.02 0.03 0.04 0.05 0.06 0.05 0.05
0.01 0.01 0.01 0.01 0.01 0.01 0.01 0.01 0.01 0.02 0.02 0.03 0.02 0.02 0.02 0.02 0.03 0.03 0.03 0.03 0.02 0.02 0.02 0.02 0.02 0.01 0.01 0.01 0.01 0.01 0.02 0.02 0.01 0.01 0.01 0.02 0.02 0.03 0.03 0.03 0.04 0.04 0.03
0.01 0.01 0.01 0.01 0.02 0.02 0.01 0.02 0.01 0.02 0.03 0.02 0.02 0.02 0.01 0.02 0.03 0.03 0.04 0.04 0.02 0.02 0.02 0.02 0.02 0.01 0.01 0.01 0.01 0.01 0.01 0.01 0.01 0.01 0.01 0.01 0.02 0.03 0.02 0.02 0.03 0.03 0.02
0.01 0.01 0.01 0.01 0.03 0.03 0.02 0.03 0.02 0.02 0.02 0.02 0.02 0.01 0.01 0.01 0.02 0.03 0.03 0.03 0.02 0.02 0.02 0.02 0.02 0.02 0.01 0.01 0.01 0.00 0.01 0.01 0.01 0.02 0.02 0.01 0.02 0.03 0.03 0.02 0.02 0.02 0.01
0.01 0.01 0.02 0.03 0.02 0.02 0.02 0.03 0.03 0.02 0.02 0.02 0.02 0.02 0.01 0.01 0.01 0.02 0.03 0.03 0.02 0.02 0.02 0.02 0.01 0.02 0.01 0.01 0.01 0.00 0.00 0.01 0.01 0.02 0.02 0.01 0.02 0.02 0.02 0.02 0.02 0.02 0.01
0.01 0.01 0.02 0.03 0.03 0.03 0.03 0.02 0.03 0.02 0.02 0.02 0.02 0.01 0.01 0.01 0.01 0.01 0.02 0.03 0.03 0.02 0.02 0.02 0.02 0.02 0.02 0.01 0.01 0.00 0.00 0.01 0.01 0.01 0.02 0.02 0.02 0.02 0.03 0.03 0.02 0.01 0.01
0.01 0.02 0.01 0.01 0.02 0.02 0.02 0.01 0.01 0.02 0.02 0.03 0.03 0.02 0.01 0.02 0.03 0.02 0.02 0.02 0.03 0.03 0.02 0.02 0.02 0.02 0.02 0.02 0.01 0.00 0.00 0.01 0.01 0.01 0.02 0.02 0.01 0.01 0.02 0.02 0.02 0.01 0.01
0.01 0.02 0.01 0.01 0.02 0.02 0.02 0.01 0.02 0.03 0.04 0.04 0.05 0.03 0.02 0.03 0.04 0.04 0.03 0.03 0.03 0.03 0.03 0.03 0.02 0.02 0.02 0.02 0.01 0.00 0.00 0.01 0.01 0.01 0.02 0.02 0.02 0.01 0.02 0.02 0.02 0.03 0.01
0.01 0.01 0.01 0.01 0.01 0.02 0.03 0.02 0.02 0.03 0.04 0.04 0.05 0.04 0.03 0.04 0.03 0.04 0.04 0.04 0.04 0.04 0.04 0.04 0.04 0.02 0.02 0.02 0.01 0.00 0.00 0.01 0.01 0.01 0.01 0.01 0.02 0.02 0.02 0.02 0.02 0.02 0.02
0.01 0.01 0.01 0.01 0.01 0.01 0.03 0.04 0.02 0.02 0.02 0.02 0.03 0.03 0.02 0.03 0.03 0.02 0.03 0.04 0.04 0.05 0.06 0.06 0.05 0.04 0.04 0.02 0.02 0.01 0.01 0.01 0.01 0.02 0.01 0.01 0.01 0.02 0.03 0.03 0.03 0.02 0.02
0.01 0.02 0.02 0.02 0.01 0.02 0.02 0.03 0.03 0.03 0.01 0.01 0.02 0.03 0.02 0.01 0.02 0.02 0.02 0.03 0.05 0.05 0.06 0.06 0.05 0.04 0.04 0.03 0.02 0.02 0.01 0.01 0.01 0.02 0.02 0.01 0.01 0.02 0.03 0.03 0.04 0.03 0.02
0.01 0.01 0.02 0.02 0.02 0.02 0.03 0.03 0.04 0.06 0.04 0.02 0.02 0.02 0.02 0.01 0.01 0.01 0.02 0.03 0.04 0.06 0.06 0.05 0.05 0.05 0.04 0.03 0.03 0.03 0.02 0.01 0.01 0.02 0.02 0.02 0.01 0.02 0.03 0.03 0.03 0.04 0.04
0.02 0.01 0.01 0.02 0.04 0.04 0.03 0.03 0.03 0.04 0.03 0.02 0.01 0.01 0.02 0.01 0.01 0.01 0.02 0.03 0.04 0.05 0.07 0.06 0.05 0.04 0.03 0.02 0.02 0.03 0.03 0.02 0.01 0.02 0.02 0.02 0.01 0.01 0.02 0.04 0.04 0.04 0.05
0.04 0.02 0.02 0.02 0.03 0.04 0.05 0.04 0.03 0.02 0.02 0.02 0.01 0.01 0.01 0.01 0.01 0.01 0.02 0.03 0.04 0.04 0.05 0.07 0.06 0.04 0.04 0.03 0.03 0.04 0.04 0.02 0.01 0.02 0.02 0.03 0.02 0.01 0.02 0.03 0.04 0.04 0.05
0.04 0.04 0.02 0.02 0.02 0.03 0.04 0.05 0.04 0.03 0.02 0.02 0.01 0.01 0.01 0.01 0.01 0.01 0.02 0.03 0.03 0.04 0.05 0.06 0.05 0.05 0.04 0.04 0.03 0.04 0.04 0.02 0.02 0.02 0.03 0.03 0.03 0.02 0.02 0.03 0.03 0.03 0.04
0.06 0.06 0.05 0.03 0.02 0.02 0.03 0.05 0.05 0.05 0.04 0.03 0.02 0.01 0.01 0.01 0.01 0.01 0.02 0.03 0.04 0.04 0.05 0.06 0.07 0.06 0.05 0.04 0.03 0.03 0.04 0.04 0.03 0.03 0.03 0.04 0.03 0.02 0.02 0.03 0.03 0.03 0.03
0.08 0.08 0.08 0.05 0.03 0.02 0.03 0.06 0.06 0.05 0.04 0.04 0.03 0.03 0.02 0.01 0.01 0.01 0.02 0.03 0.04 0.04 0.05 0.06 0.07 0.06 0.06 0.05 0.04 0.04 0.04 0.04 0.04 0.04 0.04 0.05 0.05 0.03 0.02 0.02 0.02 0.03 0.03
0.04 0.07 0.08 0.07 0.06 0.04 0.03 0.03 0.05 0.06 0.05 0.04 0.04 0.03 0.03 0.01 0.01 0.01 0.01 0.02 0.03 0.04 0.04 0.05 0.06 0.07 0.08 0.07 0.05 0.05 0.06 0.04 0.04 0.04 0.04 0.04 0.05 0.04 0.03 0.03 0.03 0.04 0.03
0.02 0.03 0.04 0.05 0.05 0.05 0.04 0.05 0.05 0.05 0.06 0.05 0.03 0.03 0.04 0.03 0.03 0.01 0.01 0.02 0.02 0.03 0.04 0.05 0.06 0.07 0.09 0.09 0.07 0.07 0.06 0.05 0.04 0.04 0.05 0.05 0.05 0.04 0.03 0.03 0.04 0.05 0.05
0.02 0.01 0.02 0.03 0.05 0.05 0.05 0.05 0.04 0.04 0.05 0.06 0.06 0.04 0.04 0.04 0.04 0.03 0.02 0.02 0.02 0.02 0.03 0.04 0.04 0.06 0.09 0.10 0.08 0.07 0.06 0.05 0.05 0.05 0.04 0.05 0.05 0.04 0.03 0.03 0.04 0.04 0.04
0.01 0.01 0.01 0.01 0.02 0.03 0.06 0.07 0.06 0.04 0.04 0.05 0.07 0.08 0.07 0.06 0.05 0.04 0.04 0.03 0.02 0.02 0.02 0.03 0.03 0.04 0.07 0.09 0.07 0.06 0.05 0.04 0.05 0.05 0.05 0.04 0.05 0.04 0.04 0.04 0.04 0.04 0.04
0.01 0.01 0.01 0.00 0.01 0.01 0.03 0.06 0.07 0.07 0.06 0.05 0.04 0.05 0.07 0.07 0.05 0.04 0.04 0.05 0.03 0.02 0.01 0.02 0.02 0.03 0.05 0.08 0.06 0.05 0.05 0.05 0.05 0.05 0.05 0.04 0.04 0.04 0.05 0.05 0.05 0.05 0.05
MSLP
1010.35 1010.33 1010.41 1010.66 1011.04 1011.53 1012.03 1012.47 1012.81 1013.01 1013.11 1013.14 1013.18 1013.27 1013.44 1013.70 1014.02 1014.36 1014.67 1014.93 1015.13 1015.27 1015.39 1015.51 1015.64 1015.81 1016.00 1016.19 1016.37 1016.52 1016.63 1016.72 1016.79 1016.87 1016.96 1017.07 1017.17 1017.27 1017.34 1017.36 1017.35 1017.30 1017.23
1010.08 1010.13 1010.31 1010.65 1011.13 1011.67 1012.20 1012.64 1012.95 1013.13 1013.19 1013.21 1013.25 1013.37 1013.59 1013.90 1014.27 1014.66 1015.00 1015.28 1015.48 1015.62 1015.74 1015.85 1015.99 1016.16 1016.35 1016.54 1016.71 1016.84 1016.95 1017.02 1017.09 1017.17 1017.27 1017.39 1017.52 1017.63 1017.72 1017.76 1017.75 1017.70 1017.64
1009.82 1009.95 1010.23 1010.66 1011.21 1011.80 1012.35 1012.79 1013.09 1013.24 1013.29 1013.31 1013.36 1013.51 1013.76 1014.10 1014.50 1014.91 1015.26 1015.54 1015.75 1015.90 1016.02 1016.14 1016.29 1016.46 1016.65 1016.84 1017.00 1017.12 1017.20 1017.26 1017.32 1017.40 1017.51 1017.64 1017.79 1017.94 1018.05 1018.11 1018.13 1018.11 1018.06
1009.60 1009.82 1010.18 1010.70 1011.31 1011.94 1012.50 1012.94 1013.22 1013.36 1013.41 1013.43 1013.50 1013.66 1013.93 1014.29 1014.69 1015.09 1015.43 1015.71 1015.91 1016.07 1016.20 1016.35 1016.52 1016.71 1016.91 1017.10 1017.25 1017.35 1017.41 1017.45 1017.49 1017.56 1017.68 1017.82 1017.99 1018.16 1018.31 1018.41 1018.47 1018.48 1018.47
1009.47 1009.76 1010.20 1010.78 1011.43 1012.08 1012.65 1013.09 1013.36 1013.50 1013.55 1013.58 1013.66 1013.83 1014.10 1014.45 1014.83 1015.20 1015.52 1015.78 1015.98 1016.14 1016.30 1016.48 1016.69 1016.91 1017.13 1017.32 1017.46 1017.54 1017.58 1017.59 1017.62 1017.67 1017.78 1017.94 1018.13 1018.32 1018.50 1018.63 1018.73 1018.79 1018.82
1009.44 1009.79 1010.29 1010.91 1011.58 1012.24 1012.80 1013.23 1013.50 1013.64 1013.70 1013.75 1013.85 1014.02 1014.28 1014.60 1014.94 1015.27 1015.55 1015.78 1015.98 1016.15 1016.35 1016.57 1016.82 1017.07 1017.32 1017.51 1017.65 1017.71 1017.72 1017.71 1017.71 1017.75 1017.85 1018.00 1018.20 1018.41 1018.61 1018.78 1018.91 1019.02 1019.10
1009.53 1009.92 1010.44 1011.07 1011.74 1012.38 1012.93 1013.34 1013.61 1013.77 1013.86 1013.93 1014.05 1014.23 1014.47 1014.76 1015.05 1015.33 1015.57 1015.78 1015.96 1016.16 1016.38 1016.64 1016.93 1017.22 1017.48 1017.68 1017.80 1017.85 1017.84 1017.80 1017.78 1017.80 1017.89 1018.04 1018.23 1018.45 1018.66 1018.85 1019.01 1019.15 1019.27
1009.71 1010.11 1010.63 1011.25 1011.89 1012.50 1013.01 1013.41 1013.69 1013.87 1013.99 1014.11 1014.26 1014.45 1014.69 1014.95 1015.20 1015.43 1015.63 1015.81 1015.99 1016.19 1016.44 1016.73 1017.05 1017.36 1017.63 1017.83 1017.93 1017.96 1017.92 1017.86 1017.82 1017.83 1017.91 1018.06 1018.25 1018.46 1018.68 1018.87 1019.04 1019.19 1019.33
1009.95 1010.34 1010.83 1011.40 1011.99 1012.55 1013.03 1013.41 1013.69 1013.90 1014.07 1014.24 1014.43 1014.66 1014.90 1015.15 1015.38 1015.57 1015.74 1015.90 1016.07 1016.28 1016.54 1016.85 1017.17 1017.49 1017.75 1017.93 1018.01 1018.01 1017.96 1017.89 1017.84 1017.85 1017.92 1018.07 1018.25 1018.46 1018.67 1018.85 1019.01 1019.16 1019.30
1010.18 1010.54 1010.99 1011.50 1012.02 1012.51 1012.95 1013.31 1013.60 1013.85 1014.07 1014.30 1014.54 1014.81 1015.07 1015.33 1015.55 1015.73 1015.89 1016.03 1016.20 1016.41 1016.67 1016.97 1017.29 1017.58 1017.82 1017.97 1018.02 1018.00 1017.93 1017.85 1017.80 1017.82 1017.91 1018.05 1018.24 1018.45 1018.64 1018.81 1018.95 1019.08 1019.20
1010.37 1010.69 1011.07 1011.51 1011.96 1012.39 1012.77 1013.11 1013.40 1013.68 1013.95 1014.23 1014.54 1014.85 1015.15 1015.42 1015.65 1015.84 1016.00 1016.15 1016.32 1016.52 1016.77 1017.06 1017.35 1017.61 1017.81 1017.92 1017.95 1017.90 1017.82 1017.74 1017.71 1017.74 1017.84 1018.00 1018.20 1018.41 1018.59 1018.75 1018.87 1018.97 1019.06
1010.45 1010.73 1011.06 1011.42 1011.80 1012.16 1012.50 1012.81 1013.10 1013.39 1013.70 1014.03 1014.38 1014.73 1015.07 1015.37 1015.62 1015.83 1016.00 1016.17 1016.34 1016.55 1016.79 1017.06 1017.32 1017.55 1017.71 1017.78 1017.78 1017.72 1017.63 1017.56 1017.54 1017.59 1017.71 1017.89 1018.11 1018.32 1018.51 1018.65 1018.75 1018.83 1018.89
1010.40 1010.64 1010.92 1011.24 1011.56 1011.87 1012.16 1012.45 1012.73 1013.02 1013.34 1013.69 1014.06 1014.43 1014.79 1015.12 1015.40 1015.64 1015.84 1016.03 1016.22 1016.44 1016.68 1016.93 1017.17 1017.36 1017.49 1017.55 1017.53 1017.46 1017.37 1017.31 1017.29 1017.36 1017.50 1017.70 1017.93 1018.16 1018.35 1018.50 1018.60 1018.66 1018.71
1010.19 1010.41 1010.67 1010.95 1011.24 1011.53 1011.80 1012.06 1012.32 1012.60 1012.91 1013.25 1013.61 1013.99 1014.35 1014.68 1014.98 1015.24 1015.47 1015.69 1015.91 1016.15 1016.40 1016.65 1016.88 1017.07 1017.19 1017.24 1017.22 1017.15 1017.07 1017.01 1017.01 1017.08 1017.22 1017.43 1017.67 1017.90 1018.11 1018.28 1018.39 1018.46 1018.50
1009.83 1010.04 1010.30 1010.58 1010.87 1011.16 1011.43 1011.68 1011.94 1012.19 1012.47 1012.77 1013.10 1013.44 1013.78 1014.10 1014.40 1014.68 1014.93 1015.18 1015.44 1015.71 1015.98 1016.25 1016.49 1016.69 1016.83 1016.89 1016.88 1016.83 1016.76 1016.71 1016.70 1016.76 1016.89 1017.08 1017.31 1017.55 1017.77 1017.96 1018.09 1018.18 1018.24
1009.32 1009.54 1009.82 1010.13 1010.46 1010.79 1011.09 1011.36 1011.61 1011.85 1012.09 1012.34 1012.60 1012.88 1013.17 1013.46 1013.74 1014.02 1014.29 1014.57 1014.86 1015.15 1015.46 1015.76 1016.04 1016.28 1016.45 1016.55 1016.58 1016.55 1016.50 1016.44 1016.41 1016.44 1016.53 1016.68 1016.87 1017.10 1017.33 1017.53 1017.70 1017.82 1017.91
1008.73 1008.95 1009.25 1009.62 1010.01 1010.40 1010.76 1011.08 1011.35 1011.58 1011.79 1011.98 1012.18 1012.39 1012.61 1012.85 1013.10 1013.37 1013.65 1013.94 1014.26 1014.59 1014.93 1015.27 1015.59 1015.87 1016.09 1016.24 1016.32 1016.33 1016.29 1016.23 1016.17 1016.15 1016.18 1016.26 1016.40 1016.59 1016.80 1017.01 1017.21 1017.37 1017.50
1008.09 1008.30 1008.63 1009.05 1009.51 1009.99 1010.43 1010.82 1011.14 1011.39 1011.57 1011.73 1011.87 1012.01 1012.17 1012.35 1012.57 1012.81 1013.09 1013.39 1013.72 1014.07 1014.43 1014.81 1015.17 1015.50 1015.78 1015.99 1016.12 1016.17 1016.15 1016.09 1016.00 1015.91 1015.86 1015.87 1015.93 1016.06 1016.23 1016.43 1016.64 1016.84 1017.00
1007.48 1007.65 1007.98 1008.43 1008.97 1009.53 1010.06 1010.53 1010.91 1011.20 1011.40 1011.53 1011.63 1011.73 1011.84 1011.99 1012.17 1012.39 1012.66 1012.95 1013.28 1013.64 1014.02 1014.41 1014.80 1015.17 1015.50 1015.76 1015.95 1016.04 1016.05 1015.99 1015.87 1015.73 1015.60 1015.52 1015.50 1015.54 1015.66 1015.83 1016.03 1016.23 1016.43
1006.97 1007.07 1007.35 1007.81 1008.38 1009.00 1009.61 1010.16 1010.61 1010.95 1011.18 1011.32 1011.42 1011.50 1011.59 1011.71 1011.88 1012.09 1012.35 1012.64 1012.96 1013.31 1013.68 1014.07 1014.46 1014.85 1015.21 1015.52 1015.75 1015.90 1015.94 1015.89 1015.76 1015.59 1015.40 1015.23 1015.12 1015.08 1015.12 1015.23 1015.40 1015.60 1015.80
1006.64 1006.62 1006.82 1007.22 1007.77 1008.41 1009.06 1009.66 1010.17 1010.57 1010.84 1011.02 1011.13 1011.23 1011.32 1011.45 1011.63 1011.84 1012.10 1012.39 1012.70 1013.03 1013.38 1013.74 1014.12 1014.51 1014.88 1015.22 1015.49 1015.68 1015.77 1015.75 1015.63 1015.44 1015.21 1014.99 1014.80 1014.68 1014.65 1014.69 1014.81 1014.97 1015.16
1006.54 1006.37 1006.43 1006.73 1007.20 1007.79 1008.43 1009.04 1009.58 1010.01 1010.33 1010.55 1010.70 1010.83 1010.96 1011.12 1011.33 1011.57 1011.84 1012.13 1012.43 1012.74 1013.06 1013.39 1013.73 1014.09 1014.46 1014.80 1015.11 1015.34 1015.48 1015.51 1015.43 1015.26 1015.03 1014.78 1014.54 1014.36 1014.25 1014.22 1014.27 1014.38 1014.53
1006.70 1006.37 1006.27 1006.40 1006.74 1007.22 1007.78 1008.35 1008.87 1009.31 1009.64 1009.89 1010.09 1010.27 1010.45 1010.66 1010.91 1011.20 1011.50 1011.81 1012.11 1012.40 1012.68 1012.97 1013.27 1013.59 1013.92 1014.27 1014.59 1014.86 1015.05 1015.14 1015.13 1015.01 1014.81 1014.57 1014.31 1014.09 1013.92 1013.82 1013.80 1013.84 1013.94
1007.13 1006.64 1006.35 1006.30 1006.45 1006.78 1007.20 1007.67 1008.12 1008.52 1008.85 1009.11 1009.34 1009.56 1009.80 1010.07 1010.38 1010.71 1011.05 1011.39 1011.70 1011.98 1012.23 1012.48 1012.73 1013.01 1013.31 1013.63 1013.96 1014.26 1014.50 1014.66 1014.72 1014.68 1014.54 1014.33 1014.09 1013.85 1013.64 1013.49 1013.40 1013.39 1013.43
1007.78 1007.15 1006.69 1006.44 1006.40 1006.54 1006.79 1007.12 1007.47 1007.79 1008.08 1008.33 1008.57 1008.81 1009.09 1009.41 1009.77 1010.16 1010.54 1010.91 1011.24 1011.52 1011.76 1011.97 1012.19 1012.42 1012.68 1012.98 1013.29 1013.61 1013.89 1014.11 1014.25 1014.28 1014.21 1014.06 1013.86 1013.63 1013.40 1013.21 1013.07 1013.00 1012.99
1008.57 1007.85 1007.25 1006.84 1006.61 1006.55 1006.63 1006.81 1007.02 1007.25 1007.47 1007.69 1007.91 1008.17 1008.47 1008.82 1009.21 1009.63 1010.06 1010.45 1010.80 1011.09 1011.33 1011.52 1011.70 1011.90 1012.12 1012.38 1012.68 1012.99 1013.29 1013.55 1013.75 1013.85 1013.85 1013.77 1013.61 1013.41 1013.19 1012.97 1012.80 1012.69 1012.63
Thickness
5730 5730 5728 5727 5727 5727 5727 5726 5726 5725 5725 5724 5724 5724 5724 5724 5724 5724 5724 5724 5724 5725 5725 5725 5725 5725 5725 5725 5725 5725 5725 5725 5725 5725 5725 5725 5725 5725 5725 5724 5724 5724 5723
5730 5727 5725 5724 5724 5723 5723 5723 5722 5722 5722 5722 5721 5721 5721 5721 5721 5721 5721 5721 5721 5721 5721 5721 5721 5721 5721 5721 5721 5722 5722 5721 5721 5721 5721 5721 5721 5721 5721 5721 5720 5720 5719
5727 5724 5722 5721 5720 5720 5719 5719 5719 5719 5718 5718 5718 5718 5718 5717 5717 5717 5718 5718 5718 5718 5718 5718 5718 5717 5717 5717 5717 5717 5718 5718 5718 5718 5718 5718 5717 5717 5717 5717 5716 5716 5715
5723 5720 5718 5716 5716 5715 5715 5715 5715 5714 5714 5714 5714 5714 5714 5714 5713 5713 5714 5714 5714 5714 5714 5714 5714 5713 5713 5713 5713 5714 5714 5715 5715 5715 5715 5714 5714 5713 5713 5712 5712 5711 5711
5718 5715 5713 5712 5711 5711 5711 5711 5710 5710 5710 5710 5710 5710 5710 5710 5710 5709 5709 5709 5709 5709 5709 5709 5709 5709 5709 5709 5709 5710 5710 5711 5711 5711 5711 5710 5710 5709 5709 5708 5707 5707 5706
5713 5710 5708 5707 5707 5706 5706 5706 5706 5706 5706 5705 5705 5705 5705 5705 5705 5704 5704 5704 5704 5704 5704 5705 5705 5705 5704 5704 5705 5705 5706 5706 5706 5706 5706 5705 5705 5704 5704 5703 5703 5702 5701
5708 5706 5703 5702 5702 5701 5701 5701 5701 5701 5701 5701 5701 5700 5700 5700 5700 5699 5699 5698 5699 5699 5699 5700 5700 5700 5700 5700 5700 5701 5702 5702 5702 5702 5701 5700 5700 5700 5699 5698 5698 5698 5697
5702 5700 5698 5697 5697 5696 5696 5696 5696 5696 5696 5696 5696 5695 5695 5695 5694 5694 5693 5693 5693 5693 5694 5694 5695 5695 5695 5695 5696 5697 5697 5698 5698 5697 5696 5696 5695 5695 5694 5694 5693 5693 5692
5696 5694 5692 5691 5691 5691 5691 5691 5691 5691 5691 5690 5690 5690 5690 5689 5689 5688 5688 5688 5688 5688 5688 5689 5689 5690 5690 5690 5691 5692 5693 5693 5693 5692 5692 5691 5691 5690 5689 5689 5688 5687 5687
5690 5688 5687 5686 5686 5685 5685 5685 5685 5685 5685 5685 5684 5684 5684 5683 5683 5683 5682 5683 5682 5682 5682 5683 5683 5684 5685 5685 5686 5687 5688 5688 5688 5688 5687 5686 5686 5685 5684 5683 5683 5682 5681
5682 5682 5682 5682 5681 5680 5680 5680 5680 5680 5680 5679 5679 5678 5678 5677 5677 5677 5677 5677 5677 5677 5677 5677 5678 5679 5680 5680 5681 5682 5683 5684 5683 5683 5682 5681 5681 5680 5679 5678 5677 5676 5676
5675 5675 5676 5676 5676 5676 5676 5675 5674 5674 5674 5674 5673 5672 5672 5672 5672 5671 5671 5671 5671 5671 5671 5672 5673 5674 5675 5675 5676 5677 5678 5678 5678 5677 5677 5676 5676 5675 5674 5673 5672 5671 5670
5670 5670 5671 5671 5671 5670 5670 5670 5669 5669 5668 5668 5668 5667 5666 5666 5665 5665 5665 5664 5665 5665 5665 5666 5666 5668 5669 5670 5671 5671 5672 5673 5672 5672 5671 5671 5670 5669 5668 5667 5666 5665 5664
5665 5665 5665 5665 5665 5665 5665 5664 5664 5663 5663 5662 5662 5661 5660 5660 5659 5659 5658 5658 5659 5659 5659 5660 5661 5662 5664 5664 5665 5666 5666 5666 5666 5666 5665 5665 5664 5663 5662 5661 5660 5659 5658
5659 5659 5659 5659 5659 5659 5658 5658 5658 5657 5657 5656 5655 5654 5654 5653 5652 5652 5652 5652 5653 5653 5654 5655 5656 5657 5658 5658 5659 5660 5660 5660 5660 5659 5658 5658 5657 5656 5656 5655 5654 5653 5652
5653 5653 5652 5652 5652 5652 5651 5651 5651 5651 5650 5649 5648 5647 5647 5646 5645 5645 5645 5645 5646 5646 5647 5648 5649 5650 5651 5652 5652 5653 5653 5653 5653 5652 5651 5651 5650 5649 5649 5648 5647 5646 5645
5647 5646 5646 5646 5645 5645 5645 5644 5644 5643 5643 5642 5641 5640 5639 5638 5638 5637 5637 5637 5638 5639 5640 5641 5642 5643 5644 5644 5644 5645 5645 5645 5645 5645 5644 5643 5643 5642 5641 5641 5640 5639 5638
5640 5639 5639 5639 5638 5638 5637 5637 5636 5636 5635 5634 5633 5632 5632 5631 5630 5630 5629 5629 5630 5631 5632 5633 5635 5635 5635 5636 5636 5637 5637 5637 5637 5637 5636 5636 5635 5635 5634 5633 5633 5632 5631
5632 5631 5631 5631 5630 5630 5629 5628 5628 5628 5627 5626 5625 5624 5623 5623 5622 5622 5622 5622 5622 5623 5624 5626 5627 5627 5627 5627 5628 5628 5628 5628 5629 5629 5628 5628 5627 5627 5626 5626 5625 5624 5624
5623 5623 5622 5623 5622 5622 5621 5620 5619 5618 5618 5617 5616 5616 5615 5614 5614 5614 5614 5613 5614 5615 5616 5616 5617 5618 5619 5619 5620 5620 5620 5620 5620 5620 5619 5619 5619 5618 5618 5618 5617 5616 5615
5613 5613 5613 5614 5613 5613 5612 5610 5609 5608 5608 5607 5607 5607 5606 5605 5605 5605 5605 5605 5606 5606 5607 5607 5608 5609 5609 5610 5609 5608 5610 5611 5611 5611 5610 5610 5610 5610 5609 5609 5609 5608 5607
5603 5603 5604 5604 5603 5604 5603 5602 5601 5600 5598 5598 5597 5597 5597 5596 5596 5596 5596 5596 5597 5597 5598 5598 5599 5599 5599 5600 5600 5598 5596 5598 5600 5602 5601 5601 5601 5601 5600 5600 5600 5600 5598
5594 5594 5595 5595 5595 5595 5594 5593 5592 5589 5588 5588 5587 5587 5587 5587 5587 5587 5587 5587 5588 5589 5589 5589 5590 5590 5589 5590 5591 5591 5589 5588 5588 5590 5591 5591 5591 5591 5591 5591 5591 5591 5589
5585 5585 5586 5586 5587 5586 5586 5584 5582 5580 5579 5579 5578 5577 5577 5577 5578 5577 5578 5579 5579 5579 5580 5581 5582 5582 5581 5580 5581 5583 5583 5583 5580 5578 5579 5580 5581 5580 5580 5581 5580 5581 5580
5576 5576 5576 5576 5577 5577 5576 5575 5573 5571 5570 5569 5568 5567 5567 5568 5568 5568 5569 5570 5570 5570 5571 5572 5573 5573 5573 5572 5571 5572 5573 5574 5574 5570 5568 5568 5569 5570 5570 5570 5570 5570 5569
5566 5566 5566 5566 5566 5566 5566 5565 5564 5562 5561 5559 5558 5557 5557 5557 5558 5558 5559 5560 5561 5561 5562 5563 5563 5564 5564 5564 5563 5563 5563 5563 5562 5561 5559 5558 5558 5558 5559 5559 5559 5559 5559